| time (UTC) | temp C | wind direction | speed KPH | gust KPH | rain 1hr cm | rain 24hr cm | rain mn cm | humidity % | barometer mb |
| 20260906120602 | 22 | 96 | 1.6 | 4.8 | 0.00 | 1.50 | 0.03 | 94 | 1020.9 |
| 20260906115103 | 21 | 205 | 1.6 | 1.6 | 0.03 | 1.50 | 0.03 | 94 | 1020.9 |
| 20260906114603 | 21 | 207 | 0.0 | 0.0 | 0.03 | 1.50 | 0.03 | 94 | 1020.9 |
| 20260906114103 | 21 | 217 | 0.0 | 0.0 | 0.03 | 1.50 | 0.03 | 94 | 1020.9 |
| 20260906113603 | 21 | 216 | 0.0 | 0.0 | 0.03 | 1.50 | 0.03 | 94 | 1020.9 |
| 20260906113103 | 21 | 216 | 0.0 | 0.0 | 0.03 | 1.50 | 0.03 | 94 | 1020.9 |
| 20260906112103 | 21 | 49 | 0.0 | 0.0 | 0.03 | 1.50 | 0.03 | 93 | 1020.9 |
| 20260906111602 | 21 | 49 | 0.0 | 0.0 | 0.03 | 1.50 | 0.03 | 93 | 1020.9 |
| 20260906111103 | 21 | 49 | 0.0 | 0.0 | 0.03 | 1.50 | 0.03 | 93 | 1020.9 |
| 20260906105603 | 21 | 174 | 0.0 | 0.0 | 0.03 | 1.50 | 0.03 | 93 | 1020.9 |
| 20260906105103 | 21 | 268 | 0.0 | 0.0 | 0.00 | 1.47 | 0.00 | 93 | 1020.9 |
| 20260906104603 | 21 | 268 | 0.0 | 0.0 | 0.00 | 1.47 | 0.00 | 93 | 1020.9 |
| 20260906104102 | 21 | 268 | 0.0 | 0.0 | 0.00 | 1.47 | 0.00 | 93 | 1020.9 |
| 20260906103603 | 21 | 268 | 0.0 | 0.0 | 0.00 | 1.47 | 0.00 | 93 | 1020.9 |
| 20260906103103 | 21 | 268 | 0.0 | 0.0 | 0.00 | 1.47 | 0.00 | 93 | 1020.9 |
| 20260906102602 | 21 | 268 | 0.0 | 0.0 | 0.00 | 1.47 | 0.00 | 93 | 1020.9 |
| 20260906102103 | 21 | 268 | 0.0 | 0.0 | 0.00 | 1.47 | 0.00 | 93 | 1020.9 |
| 20260906101602 | 21 | 268 | 0.0 | 0.0 | 0.00 | 1.47 | 0.00 | 93 | 1020.9 |
| 20260906101103 | 21 | 268 | 0.0 | 0.0 | 0.00 | 1.47 | 0.00 | 93 | 1020.9 |
| 20260906100603 | 21 | 268 | 0.0 | 0.0 | 0.00 | 1.47 | 0.00 | 93 | 1020.9 |
| 20260906095603 | 21 | 268 | 0.0 | 0.0 | 0.00 | 1.47 | 0.00 | 93 | 1020.9 |
| 20260906094602 | 21 | 268 | 0.0 | 0.0 | 0.00 | 1.47 | 0.00 | 93 | 1020.9 |
| 20260906094103 | 21 | 268 | 0.0 | 0.0 | 0.00 | 1.47 | 0.00 | 93 | 1020.9 |
| 20260906093603 | 21 | 268 | 0.0 | 0.0 | 0.00 | 1.47 | 0.00 | 93 | 1020.9 |
| 20260906093103 | 21 | 268 | 0.0 | 0.0 | 0.00 | 1.47 | 0.00 | 93 | 1020.9 |
| 20260906092602 | 21 | 268 | 0.0 | 0.0 | 0.00 | 1.47 | 0.00 | 93 | 1020.9 |
| 20260906091603 | 21 | 268 | 0.0 | 0.0 | 0.00 | 1.47 | 0.00 | 93 | 1020.9 |
| 20260906091103 | 21 | 268 | 0.0 | 0.0 | 0.00 | 1.47 | 0.00 | 93 | 1020.9 |
| 20260906090602 | 21 | 268 | 0.0 | 0.0 | 0.00 | 1.47 | 0.00 | 93 | 1020.9 |
| 20260906085102 | 21 | 208 | 0.0 | 0.0 | 0.00 | 1.47 | 0.00 | 93 | 1020.9 |
| 20260906084603 | 21 | 203 | 0.0 | 0.0 | 0.00 | 1.47 | 0.00 | 93 | 1020.9 |
| 20260906084103 | 21 | 203 | 0.0 | 0.0 | 0.00 | 1.47 | 0.00 | 93 | 1020.9 |
| 20260906083603 | 21 | 203 | 0.0 | 0.0 | 0.00 | 1.47 | 0.00 | 93 | 1020.9 |
| 20260906082102 | 21 | 203 | 0.0 | 0.0 | 0.00 | 1.47 | 0.00 | 93 | 1020.9 |
| 20260906081602 | 21 | 203 | 0.0 | 0.0 | 0.00 | 1.47 | 0.00 | 93 | 1020.9 |
| 20260906081103 | 21 | 203 | 0.0 | 0.0 | 0.00 | 1.47 | 0.00 | 93 | 1020.9 |
| 20260906080103 | 21 | 203 | 0.0 | 0.0 | 0.00 | 1.47 | 0.00 | 93 | 1020.9 |
| 20260906075602 | 21 | 203 | 0.0 | 0.0 | 0.00 | 1.47 | 0.00 | 93 | 1020.9 |
| 20260906075102 | 21 | 203 | 0.0 | 0.0 | 0.00 | 1.47 | 0.00 | 93 | 1020.9 |
| 20260906074103 | 21 | 203 | 0.0 | 0.0 | 0.00 | 1.47 | 0.00 | 93 | 1020.9 |
| 20260906073602 | 21 | 203 | 0.0 | 0.0 | 0.00 | 1.47 | 0.00 | 93 | 1020.9 |
| 20260906073103 | 21 | 203 | 0.0 | 0.0 | 0.00 | 1.47 | 0.00 | 93 | 1020.9 |
| 20260906072603 | 21 | 203 | 0.0 | 0.0 | 0.00 | 1.47 | 0.00 | 93 | 1020.9 |
| 20260906072102 | 21 | 203 | 0.0 | 0.0 | 0.00 | 1.47 | 0.00 | 93 | 1020.9 |
| 20260906071603 | 21 | 203 | 0.0 | 0.0 | 0.00 | 1.47 | 0.00 | 93 | 1020.9 |
| 20260906071103 | 21 | 203 | 0.0 | 0.0 | 0.00 | 1.47 | 0.00 | 93 | 1020.9 |
| 20260906070103 | 21 | 203 | 0.0 | 0.0 | 0.00 | 1.47 | 0.00 | 93 | 1020.9 |
| 20260906065603 | 21 | 203 | 0.0 | 0.0 | 0.00 | 1.47 | 0.00 | 93 | 1020.9 |
| 20260906065103 | 21 | 203 | 0.0 | 0.0 | 0.00 | 1.47 | 0.00 | 93 | 1020.9 |
| 20260906064103 | 21 | 203 | 0.0 | 0.0 | 0.00 | 1.47 | 0.00 | 93 | 1020.9 |
| 20260906063603 | 21 | 203 | 0.0 | 0.0 | 0.00 | 1.47 | 0.00 | 93 | 1020.9 |
| 20260906063102 | 21 | 203 | 0.0 | 0.0 | 0.00 | 1.47 | 0.00 | 93 | 1020.9 |
| 20260906062603 | 21 | 203 | 0.0 | 0.0 | 0.00 | 1.47 | 0.00 | 93 | 1020.9 |
| 20260906062103 | 21 | 203 | 0.0 | 0.0 | 0.00 | 1.47 | 0.00 | 93 | 1020.9 |
| 20260906061102 | 21 | 203 | 0.0 | 0.0 | 0.00 | 1.47 | 0.00 | 93 | 1020.9 |
| 20260906060603 | 22 | 203 | 0.0 | 0.0 | 0.00 | 1.47 | 0.00 | 93 | 1020.9 |
| 20260906055602 | 22 | 219 | 0.0 | 0.0 | 0.00 | 1.47 | 0.00 | 93 | 1020.9 |
| 20260906055102 | 22 | 219 | 0.0 | 0.0 | 0.00 | 1.47 | 0.00 | 93 | 1020.9 |
| 20260906054602 | 22 | 219 | 0.0 | 0.0 | 0.00 | 1.47 | 0.00 | 93 | 1020.9 |
| 20260906054103 | 22 | 219 | 0.0 | 0.0 | 0.00 | 1.47 | 0.00 | 93 | 1020.9 |
| 20260906053603 | 22 | 219 | 0.0 | 0.0 | 0.00 | 1.47 | 0.00 | 93 | 1020.9 |
| 20260906053102 | 22 | 219 | 0.0 | 0.0 | 0.00 | 1.47 | 0.00 | 93 | 1020.9 |
| 20260906052603 | 22 | 219 | 0.0 | 0.0 | 0.00 | 1.47 | 0.00 | 93 | 1020.9 |
| 20260906052103 | 22 | 219 | 0.0 | 1.6 | 0.00 | 1.47 | 0.00 | 93 | 1020.9 |
| 20260906051603 | 22 | 219 | 1.6 | 3.2 | 0.00 | 1.47 | 0.00 | 93 | 1020.9 |
| 20260906051103 | 22 | 164 | 0.0 | 3.2 | 0.00 | 1.47 | 0.00 | 93 | 1020.9 |
| 20260906050603 | 22 | 164 | 1.6 | 3.2 | 0.00 | 1.47 | 0.00 | 93 | 1020.9 |
| 20260906045603 | 22 | 164 | 0.0 | 0.0 | 0.00 | 1.47 | 0.00 | 92 | 1020.9 |
| 20260906045103 | 22 | 164 | 0.0 | 0.0 | 0.00 | 1.47 | 0.00 | 92 | 1020.9 |
| 20260906044602 | 22 | 164 | 0.0 | 0.0 | 0.00 | 1.47 | 0.00 | 92 | 1020.9 |
| 20260906044103 | 22 | 164 | 1.6 | 1.6 | 0.00 | 1.47 | 0.00 | 92 | 1020.9 |
| 20260906043603 | 22 | 164 | 0.0 | 3.2 | 0.00 | 1.47 | 0.00 | 92 | 1020.9 |
| 20260906043102 | 22 | 164 | 1.6 | 3.2 | 0.00 | 1.47 | 0.00 | 92 | 1020.9 |
| 20260906042602 | 22 | 164 | 1.6 | 3.2 | 0.00 | 1.47 | 0.00 | 92 | 1020.9 |
| 20260906042102 | 22 | 164 | 0.0 | 4.8 | 0.00 | 1.47 | 0.00 | 92 | 1020.9 |
| 20260906041603 | 22 | 164 | 4.8 | 4.8 | 0.00 | 1.47 | 0.00 | 92 | 1020.9 |
| 20260906041104 | 22 | 164 | 3.2 | 8.0 | 0.00 | 1.47 | 0.00 | 92 | 1020.9 |
| 20260906040603 | 22 | 122 | 1.6 | 4.8 | 0.00 | 1.47 | 0.00 | 92 | 1020.9 |
| 20260906035603 | 22 | 37 | 0.0 | 0.0 | 0.00 | 1.47 | 1.47 | 92 | 1020.9 |
| 20260906035103 | 22 | 37 | 0.0 | 0.0 | 0.00 | 1.47 | 1.47 | 92 | 1020.9 |
| 20260906034603 | 22 | 37 | 0.0 | 0.0 | 0.00 | 1.47 | 1.47 | 92 | 1020.9 |
| 20260906034102 | 22 | 37 | 0.0 | 0.0 | 0.00 | 1.47 | 1.47 | 92 | 1020.9 |
| 20260906033602 | 22 | 37 | 0.0 | 0.0 | 0.00 | 1.47 | 1.47 | 92 | 1020.9 |
| 20260906033103 | 22 | 37 | 0.0 | 0.0 | 0.00 | 1.47 | 1.47 | 92 | 1020.9 |
| 20260906032603 | 22 | 37 | 0.0 | 0.0 | 0.00 | 1.47 | 1.47 | 92 | 1020.9 |
| 20260906031603 | 22 | 37 | 0.0 | 0.0 | 0.03 | 1.47 | 1.47 | 92 | 1020.9 |
| 20260906031103 | 22 | 37 | 0.0 | 0.0 | 0.13 | 1.47 | 1.47 | 92 | 1020.9 |
| 20260906030602 | 22 | 37 | 0.0 | 0.0 | 0.13 | 1.47 | 1.47 | 92 | 1020.9 |
| 20260906025603 | 22 | 37 | 1.6 | 4.8 | 0.13 | 1.47 | 1.47 | 92 | 1020.9 |
| 20260906025103 | 22 | 38 | 1.6 | 4.8 | 0.13 | 1.47 | 1.47 | 92 | 1020.9 |
| 20260906024103 | 22 | 355 | 1.6 | 3.2 | 0.13 | 1.47 | 1.47 | 92 | 1020.9 |
| 20260906023103 | 22 | 164 | 8.0 | 8.0 | 0.13 | 1.47 | 1.47 | 92 | 1020.9 |
| 20260906022603 | 22 | 51 | 1.6 | 12.9 | 0.13 | 1.47 | 1.47 | 92 | 1020.9 |
| 20260906022103 | 22 | 75 | 1.6 | 4.8 | 0.13 | 1.47 | 1.47 | 92 | 1020.9 |
| 20260906021603 | 22 | 72 | 1.6 | 8.0 | 0.10 | 1.45 | 1.45 | 92 | 1020.9 |
| 20260906021103 | 22 | 24 | 8.0 | 19.3 | 0.00 | 1.35 | 1.35 | 92 | 1020.9 |
| 20260906020603 | 22 | 9 | 3.2 | 4.8 | 0.00 | 1.35 | 1.35 | 93 | 1020.9 |
| 20260906015603 | 22 | 310 | 0.0 | 1.6 | 0.00 | 1.35 | 1.35 | 92 | 1020.9 |
| 20260906015102 | 22 | 309 | 3.2 | 4.8 | 0.00 | 1.35 | 1.35 | 92 | 1020.9 |
| 20260906014602 | 22 | 312 | 4.8 | 8.0 | 0.00 | 1.35 | 1.35 | 92 | 1020.9 |
| 20260906014103 | 22 | 18 | 0.0 | 0.0 | 0.00 | 1.35 | 1.35 | 92 | 1020.9 |
| 20260906013602 | 22 | 15 | 0.0 | 0.0 | 0.00 | 1.35 | 1.35 | 92 | 1020.9 |
| 20260906013103 | 22 | 15 | 0.0 | 0.0 | 0.00 | 1.35 | 1.35 | 92 | 1020.9 |
| 20260906012603 | 22 | 15 | 0.0 | 1.6 | 0.00 | 1.35 | 1.35 | 92 | 1020.9 |
| 20260906012103 | 22 | 15 | 1.6 | 1.6 | 0.00 | 1.35 | 1.35 | 92 | 1020.9 |
| 20260906011603 | 22 | 15 | 0.0 | 1.6 | 0.00 | 1.35 | 1.35 | 92 | 1020.9 |
| 20260906011102 | 22 | 15 | 1.6 | 3.2 | 0.00 | 1.35 | 1.35 | 92 | 1020.9 |
| 20260906010602 | 22 | 69 | 0.0 | 1.6 | 0.00 | 1.35 | 1.35 | 92 | 1020.9 |
| 20260906005602 | 22 | 103 | 1.6 | 3.2 | 0.00 | 1.35 | 1.35 | 92 | 1020.9 |
| 20260906005102 | 22 | 331 | 0.0 | 3.2 | 0.00 | 1.35 | 1.35 | 92 | 1020.9 |
| 20260906004603 | 22 | 330 | 0.0 | 4.8 | 0.00 | 1.35 | 1.35 | 92 | 1020.9 |
| 20260906004103 | 22 | 159 | 0.0 | 3.2 | 0.00 | 1.35 | 1.35 | 92 | 1020.9 |
| 20260906003603 | 22 | 257 | 1.6 | 3.2 | 0.00 | 1.35 | 1.35 | 92 | 1020.9 |
| 20260906003103 | 22 | 327 | 1.6 | 1.6 | 0.00 | 1.35 | 1.35 | 92 | 1020.9 |
| 20260906002603 | 22 | 91 | 0.0 | 0.0 | 0.00 | 1.35 | 1.35 | 92 | 1020.9 |
| 20260906002103 | 22 | 91 | 0.0 | 3.2 | 0.00 | 1.35 | 1.35 | 92 | 1020.9 |
| 20260906001603 | 22 | 96 | 3.2 | 4.8 | 0.00 | 1.35 | 1.35 | 92 | 1020.9 |
| 20260906001103 | 22 | 42 | 1.6 | 1.6 | 0.00 | 1.35 | 1.35 | 92 | 1020.9 |
| 20260906000602 | 22 | 42 | 0.0 | 0.0 | 0.00 | 1.35 | 1.35 | 92 | 1020.9 |
| 20260905235604 | 22 | 313 | 0.0 | 0.0 | 0.00 | 1.35 | 1.35 | 91 | 1020.9 |
| 20260905235103 | 22 | 313 | 0.0 | 0.0 | 0.00 | 1.35 | 1.35 | 91 | 1020.9 |
| 20260905234603 | 22 | 313 | 0.0 | 0.0 | 0.05 | 1.35 | 1.35 | 91 | 1020.9 |
| 20260905234103 | 22 | 313 | 0.0 | 0.0 | 0.48 | 1.35 | 1.35 | 91 | 1020.9 |
| 20260905233604 | 22 | 313 | 0.0 | 0.0 | 0.71 | 1.35 | 1.35 | 91 | 1020.9 |
| 20260905233103 | 22 | 313 | 0.0 | 0.0 | 1.09 | 1.35 | 1.35 | 91 | 1020.9 |
| 20260905232603 | 22 | 313 | 1.6 | 3.2 | 1.27 | 1.35 | 1.35 | 91 | 1020.9 |
| 20260905232103 | 22 | 94 | 0.0 | 4.8 | 1.35 | 1.35 | 1.35 | 90 | 1020.9 |
| 20260905231603 | 22 | 86 | 3.2 | 4.8 | 1.35 | 1.35 | 1.35 | 90 | 1020.9 |
| 20260905231103 | 22 | 109 | 4.8 | 12.9 | 1.35 | 1.35 | 1.35 | 90 | 1020.9 |
| 20260905230603 | 22 | 166 | 9.7 | 12.9 | 1.35 | 1.35 | 1.35 | 90 | 1020.9 |
| 20260905225103 | 22 | 140 | 4.8 | 4.8 | 1.35 | 1.35 | 1.35 | 86 | 1020.9 |
| 20260905224603 | 23 | 119 | 16.1 | 20.9 | 1.30 | 1.30 | 1.30 | 84 | 1020.9 |
| 20260905223603 | 24 | 81 | 3.2 | 12.9 | 0.64 | 0.64 | 0.64 | 79 | 1020.9 |
| 20260905223103 | 26 | 313 | 6.4 | 22.5 | 0.25 | 0.25 | 0.25 | 70 | 1020.9 |
| 20260905222604 | 28 | 329 | 17.7 | 33.8 | 0.08 | 0.08 | 0.08 | 63 | 1020.9 |
| 20260905222103 | 32 | 331 | 19.3 | 38.6 | 0.00 | 0.00 | 0.00 | 55 | 1020.9 |
| 20260905221602 | 34 | 311 | 11.3 | 41.8 | 0.00 | 0.00 | 0.00 | 59 | 1020.9 |
| 20260905221103 | 35 | 74 | 4.8 | 9.7 | 0.00 | 0.00 | 0.00 | 59 | 1020.9 |
| 20260905220103 | 35 | 317 | 0.0 | 1.6 | 0.00 | 0.00 | 0.00 | 59 | 1020.9 |
| 20260905215602 | 35 | 120 | 0.0 | 3.2 | 0.00 | 0.00 | 0.00 | 59 | 1020.9 |
| 20260905215103 | 35 | 144 | 1.6 | 4.8 | 0.00 | 0.00 | 0.00 | 58 | 1020.9 |
| 20260905214103 | 35 | 81 | 0.0 | 4.8 | 0.00 | 0.00 | 0.00 | 58 | 1020.9 |
| 20260905213103 | 36 | 225 | 0.0 | 3.2 | 0.00 | 0.00 | 0.00 | 58 | 1020.9 |
| 20260905212603 | 36 | 117 | 1.6 | 3.2 | 0.00 | 0.00 | 0.00 | 57 | 1020.9 |
| 20260905212103 | 36 | 217 | 1.6 | 3.2 | 0.00 | 0.00 | 0.00 | 57 | 1020.9 |
| 20260905210603 | 36 | 250 | 1.6 | 9.7 | 0.00 | 0.00 | 0.00 | 56 | 1020.9 |
| 20260905205603 | 36 | 305 | 0.0 | 4.8 | 0.00 | 0.00 | 0.00 | 56 | 1020.9 |
| 20260905205103 | 36 | 325 | 3.2 | 4.8 | 0.00 | 0.00 | 0.00 | 55 | 1020.9 |
| 20260905204603 | 36 | 334 | 3.2 | 4.8 | 0.00 | 0.00 | 0.00 | 56 | 1020.9 |
| 20260905204103 | 36 | 329 | 3.2 | 9.7 | 0.00 | 0.00 | 0.00 | 55 | 1020.9 |
| 20260905203603 | 36 | 320 | 3.2 | 11.3 | 0.00 | 0.00 | 0.00 | 56 | 1020.9 |
| 20260905203103 | 36 | 296 | 1.6 | 4.8 | 0.00 | 0.00 | 0.00 | 54 | 1020.9 |
| 20260905202603 | 37 | 54 | 1.6 | 3.2 | 0.00 | 0.00 | 0.00 | 56 | 1020.9 |
| 20260905201603 | 37 | 323 | 4.8 | 12.9 | 0.00 | 0.00 | 0.00 | 54 | 1020.9 |
| 20260905201103 | 37 | 279 | 1.6 | 4.8 | 0.00 | 0.00 | 0.00 | 55 | 1020.9 |
| 20260905200603 | 37 | 322 | 4.8 | 12.9 | 0.00 | 0.00 | 0.00 | 54 | 1020.9 |
| 20260905195603 | 37 | 301 | 0.0 | 11.3 | 0.00 | 0.00 | 0.00 | 54 | 1020.9 |
| 20260905195103 | 37 | 302 | 4.8 | 12.9 | 0.00 | 0.00 | 0.00 | 54 | 1020.9 |
| 20260905194603 | 37 | 332 | 3.2 | 11.3 | 0.00 | 0.00 | 0.00 | 53 | 1020.9 |
| 20260905193603 | 37 | 294 | 11.3 | 19.3 | 0.00 | 0.00 | 0.00 | 53 | 1020.9 |
| 20260905193103 | 37 | 243 | 0.0 | 3.2 | 0.00 | 0.00 | 0.00 | 55 | 1020.9 |
| 20260905192603 | 37 | 355 | 1.6 | 8.0 | 0.00 | 0.00 | 0.00 | 55 | 1020.9 |
| 20260905192103 | 37 | 336 | 3.2 | 12.9 | 0.00 | 0.00 | 0.00 | 55 | 1020.9 |
| 20260905190604 | 36 | 311 | 4.8 | 11.3 | 0.00 | 0.00 | 0.00 | 55 | 1020.9 |
| 20260905185603 | 36 | 331 | 3.2 | 11.3 | 0.00 | 0.00 | 0.00 | 56 | 1020.9 |
| 20260905184603 | 36 | 126 | 3.2 | 9.7 | 0.00 | 0.00 | 0.00 | 60 | 1020.9 |
| 20260905184103 | 36 | 300 | 11.3 | 16.1 | 0.00 | 0.00 | 0.00 | 56 | 1020.9 |
| 20260905183603 | 36 | 330 | 3.2 | 12.9 | 0.00 | 0.00 | 0.00 | 57 | 1020.9 |
| 20260905183103 | 36 | 80 | 3.2 | 12.9 | 0.00 | 0.00 | 0.00 | 57 | 1020.9 |
| 20260905182603 | 36 | 314 | 8.0 | 14.5 | 0.00 | 0.00 | 0.00 | 55 | 1020.9 |
| 20260905181603 | 36 | 302 | 1.6 | 12.9 | 0.00 | 0.00 | 0.00 | 58 | 1020.9 |
| 20260905181103 | 36 | 295 | 12.9 | 16.1 | 0.00 | 0.00 | 0.00 | 57 | 1020.9 |
| 20260905180603 | 36 | 296 | 4.8 | 11.3 | 0.00 | 0.00 | 0.00 | 58 | 1020.9 |
| 20260905180103 | 36 | 337 | 6.4 | 14.5 | 0.00 | 0.00 | 0.00 | 58 | 1020.9 |
| 20260905175603 | 36 | 309 | 6.4 | 11.3 | 0.00 | 0.00 | 0.00 | 59 | 1020.9 |
| 20260905175103 | 36 | 213 | 1.6 | 4.8 | 0.00 | 0.00 | 0.00 | 60 | 1020.9 |
| 20260905174603 | 35 | 155 | 4.8 | 8.0 | 0.00 | 0.00 | 0.00 | 59 | 1020.9 |
| 20260905174103 | 35 | 318 | 3.2 | 8.0 | 0.00 | 0.00 | 0.00 | 60 | 1020.9 |
| 20260905173603 | 35 | 265 | 3.2 | 4.8 | 0.00 | 0.00 | 0.00 | 64 | 1020.9 |
| 20260905173103 | 35 | 347 | 4.8 | 8.0 | 0.00 | 0.00 | 0.00 | 63 | 1020.9 |
| 20260905172603 | 35 | 280 | 4.8 | 14.5 | 0.00 | 0.00 | 0.00 | 63 | 1020.9 |
| 20260905172103 | 35 | 277 | 8.0 | 14.5 | 0.00 | 0.00 | 0.00 | 60 | 1020.9 |
| 20260905171603 | 35 | 300 | 4.8 | 14.5 | 0.00 | 0.00 | 0.00 | 62 | 1020.9 |
| 20260905171104 | 35 | 356 | 1.6 | 8.0 | 0.00 | 0.00 | 0.00 | 64 | 1020.9 |
| 20260905170603 | 35 | 0 | 4.8 | 8.0 | 0.00 | 0.00 | 0.00 | 64 | 1020.9 |
| 20260905165603 | 35 | 293 | 6.4 | 14.5 | 0.00 | 0.00 | 0.00 | 65 | 1020.9 |
| 20260905165103 | 35 | 324 | 8.0 | 14.5 | 0.00 | 0.00 | 0.00 | 62 | 1020.9 |
| 20260905164603 | 35 | 291 | 4.8 | 12.9 | 0.00 | 0.00 | 0.00 | 64 | 1020.9 |
| 20260905164103 | 34 | 112 | 3.2 | 4.8 | 0.00 | 0.00 | 0.00 | 65 | 1020.9 |
| 20260905163602 | 34 | 143 | 4.8 | 8.0 | 0.00 | 0.00 | 0.00 | 66 | 1020.9 |
| 20260905162103 | 34 | 283 | 1.6 | 8.0 | 0.00 | 0.00 | 0.00 | 65 | 1020.9 |
| 20260905161603 | 34 | 150 | 3.2 | 9.7 | 0.00 | 0.00 | 0.00 | 64 | 1020.9 |
| 20260905160603 | 34 | 289 | 4.8 | 4.8 | 0.00 | 0.00 | 0.00 | 68 | 1020.9 |
| 20260905155604 | 33 | 237 | 3.2 | 4.8 | 0.00 | 0.00 | 0.00 | 70 | 1020.9 |
| 20260905155103 | 33 | 340 | 8.0 | 11.3 | 0.00 | 0.00 | 0.00 | 68 | 1020.9 |
| 20260905154603 | 33 | 295 | 4.8 | 11.3 | 0.00 | 0.00 | 0.00 | 68 | 1020.9 |
| 20260905154103 | 33 | 296 | 8.0 | 12.9 | 0.00 | 0.00 | 0.00 | 68 | 1020.9 |
| 20260905153603 | 32 | 314 | 1.6 | 14.5 | 0.00 | 0.00 | 0.00 | 69 | 1020.9 |
| 20260905153104 | 32 | 337 | 3.2 | 9.7 | 0.00 | 0.00 | 0.00 | 71 | 1020.9 |
| 20260905152603 | 32 | 309 | 6.4 | 12.9 | 0.00 | 0.00 | 0.00 | 70 | 1020.9 |
| 20260905152104 | 32 | 311 | 3.2 | 14.5 | 0.00 | 0.00 | 0.00 | 69 | 1020.9 |
| 20260905151603 | 32 | 243 | 3.2 | 9.7 | 0.00 | 0.00 | 0.00 | 69 | 1020.9 |
| 20260905151103 | 32 | 298 | 12.9 | 14.5 | 0.00 | 0.00 | 0.00 | 69 | 1020.9 |
| 20260905150603 | 32 | 302 | 3.2 | 4.8 | 0.00 | 0.00 | 0.00 | 71 | 1020.9 |
| 20260905145603 | 32 | 307 | 3.2 | 9.7 | 0.00 | 0.00 | 0.00 | 72 | 1020.9 |
| 20260905145103 | 32 | 322 | 17.7 | 19.3 | 0.00 | 0.00 | 0.00 | 71 | 1020.9 |
| 20260905144603 | 32 | 281 | 0.0 | 4.8 | 0.00 | 0.00 | 0.00 | 71 | 1020.9 |
| 20260905144103 | 32 | 32 | 3.2 | 4.8 | 0.00 | 0.00 | 0.00 | 72 | 1020.9 |
| 20260905143603 | 32 | 333 | 3.2 | 4.8 | 0.00 | 0.00 | 0.00 | 73 | 1020.9 |
| 20260905143103 | 32 | 194 | 1.6 | 8.0 | 0.00 | 0.00 | 0.00 | 74 | 1020.9 |
| 20260905142603 | 31 | 281 | 3.2 | 11.3 | 0.00 | 0.00 | 0.00 | 74 | 1020.9 |
| 20260905141103 | 31 | 315 | 1.6 | 8.0 | 0.00 | 0.00 | 0.00 | 77 | 1020.9 |
| 20260905140603 | 31 | 276 | 1.6 | 11.3 | 0.00 | 0.00 | 0.00 | 77 | 1020.9 |
| 20260905140103 | 31 | 120 | 3.2 | 8.0 | 0.00 | 0.00 | 0.00 | 77 | 1020.9 |
| 20260905135603 | 30 | 319 | 1.6 | 3.2 | 0.00 | 0.00 | 0.00 | 79 | 1020.9 |
| 20260905135103 | 30 | 330 | 1.6 | 14.5 | 0.00 | 0.00 | 0.00 | 80 | 1020.9 |
| 20260905134603 | 30 | 245 | 3.2 | 14.5 | 0.00 | 0.00 | 0.00 | 81 | 1020.9 |
| 20260905134103 | 30 | 12 | 4.8 | 9.7 | 0.00 | 0.00 | 0.00 | 81 | 1020.9 |
| 20260905133103 | 29 | 327 | 4.8 | 4.8 | 0.00 | 0.00 | 0.00 | 82 | 1020.9 |
| 20260905132603 | 29 | 46 | 1.6 | 1.6 | 0.00 | 0.00 | 0.00 | 84 | 1020.9 |
| 20260905132104 | 28 | 238 | 1.6 | 4.8 | 0.00 | 0.00 | 0.00 | 85 | 1020.9 |
| 20260905131603 | 28 | 331 | 3.2 | 9.7 | 0.00 | 0.00 | 0.00 | 85 | 1020.9 |
| 20260905131103 | 28 | 259 | 0.0 | 4.8 | 0.00 | 0.00 | 0.00 | 86 | 1020.9 |
| 20260905130604 | 28 | 317 | 3.2 | 4.8 | 0.00 | 0.00 | 0.00 | 87 | 1020.9 |
| 20260905125603 | 27 | 315 | 1.6 | 4.8 | 0.00 | 0.00 | 0.00 | 88 | 1020.9 |
| 20260905125103 | 27 | 174 | 0.0 | 9.7 | 0.00 | 0.00 | 0.00 | 88 | 1020.9 |
| 20260905124604 | 27 | 251 | 4.8 | 4.8 | 0.00 | 0.00 | 0.00 | 90 | 1020.9 |
| 20260905124104 | 27 | 9 | 0.0 | 0.0 | 0.00 | 0.00 | 0.00 | 90 | 1020.9 |
| 20260905123604 | 27 | 315 | 1.6 | 3.2 | 0.00 | 0.00 | 0.00 | 91 | 1020.9 |
| 20260905123103 | 26 | 126 | 1.6 | 4.8 | 0.00 | 0.00 | 0.00 | 91 | 1020.9 |
| 20260905122603 | 26 | 0 | 1.6 | 8.0 | 0.00 | 0.00 | 0.00 | 92 | 1020.9 |
| 20260905122103 | 26 | 292 | 1.6 | 4.8 | 0.00 | 0.00 | 0.00 | 92 | 1020.9 |
| 20260905121603 | 26 | 248 | 3.2 | 4.8 | 0.00 | 0.00 | 0.00 | 93 | 1020.9 |
| 20260905121103 | 26 | 333 | 0.0 | 3.2 | 0.00 | 0.00 | 0.00 | 93 | 1020.9 |